Regional Weather Roundup
Issued by NWS

Home | Current Version | Previous Version | Graphics & Text | Print | Product List | Glossary On
Versions: 1 2 3 4 5 6 7 8 9 10 11 12 13 14 15 16 17 18 19 20 21 22 23 24 25 26 27 28 29 30 31 32 33 34 35 36 37 38 39 40 41 42 43 44 45 46 47 48 49 50
115
ASUS45 KTFX 272010
RWRMT
MONTANA REGIONAL WEATHER ROUNDUP
NATIONAL WEATHER SERVICE GREAT FALLS MT
200 PM MDT MON MAR 27 2017

NOTE: "FAIR" INDICATES FEW OR NO CLOUDS BELOW 12000 FEET WITH NO
SIGNIFICANT WEATHER AND/OR OBSTRUCTIONS TO VISIBILITY.

MTZ001>007-043-272100-
WEST OF THE DIVIDE

CITY           SKY/WX    TMP DP  RH WIND       PRES   REMARKS
KALISPELL      LGT RAIN  43  39  86 SE13G21   29.93R
MISSOULA       LGT RAIN  43  39  86 NW5       29.99R
BUTTE          CLOUDY    46  26  45 W9        29.86S
MULLAN PASS    SNOW      30  30 100 VRB6      29.95R VSB 1/4 WCI  24
ANACONDA         N/A     36  32  87 W15G21    29.91R WCI  26
DEER LODGE       N/A     37  34  87 NW13G24   29.94R WCI  29
EUREKA           N/A     52  36  54 SW10      29.91R
HAMILTON         N/A     46  32  57 N5        29.96S
PLAINS           N/A     47  37  68 CALM      29.99R
RONAN            N/A     41  38  89 E12       30.00R
$$

MTZ008-052>055-272100-
SOUTHWEST MONTANA

CITY           SKY/WX    TMP DP  RH WIND       PRES   REMARKS
BOZEMAN        CLOUDY    52  32  46 NW8       29.85R
DILLON         CLOUDY    49  22  34 SW14      29.84F
W YELLOWSTONE  CLOUDY    37  28  70 S13       29.88F WCI  29
ENNIS          CLOUDY    45  30  57 N7        29.90S
THREE FORKS      N/A     52  52 100 CALM      29.86S
TWIN BRIDGES     N/A     52  23  32 SE6       29.86S
$$

MTZ009-010-012-014-046-048-049-054-272100-
EAST SLOPES AND CENTRAL MONTANA

CITY           SKY/WX    TMP DP  RH WIND       PRES   REMARKS
CUT BANK       CLOUDY    52  25  35 VRB5      29.82F
GREAT FALLS    CLOUDY    53  26  35 W13       29.83S
MALMSTROM AFB  PTSUNNY   53  25  34 W13       29.84S
HELENA         CLOUDY    54  31  41 NW10      29.84S
AUGUSTA        PTSUNNY   50  27  40 NW6       29.84S
BOWMANS CRNR   PTSUNNY   48  26  41 W8        29.83S
CHOTEAU          N/A     52  28  40 W8G14     29.87R
CONRAD           N/A     51  29  43 W3        29.88R
FAIRFIELD        N/A     52  25  35 SW7       29.84R
POWER          PTSUNNY   51  25  36 W3        29.83R
RAYNESFORD     PTSUNNY   51  24  35 NW9       29.84R
$$

MTZ011-013-016-021-045-047-050-051-272100-
NORTH CENTRAL MONTANA

CITY           SKY/WX    TMP DP  RH WIND       PRES   REMARKS
HAVRE          SUNNY     58  31  35 CALM      29.82S
LEWISTOWN      CLOUDY    52  27  38 N7        29.83S
N BAR RANCH    CLOUDY    48  30  49 VRB5      29.86S
CHINOOK          N/A     57  30  35 NE6G16    29.82F
DENTON           N/A     52  27  37 NW6       29.80S
FORT BENTON      N/A     57  28  33 MISG      29.83S
GEYSER         PTSUNNY   52  27  38 NW15G22   29.83R
GRASS RANGE    PTSUNNY   53  31  43 NE13      29.80S
JUDITH GAP     LGT RAIN  48  29  47 N7        29.83R
STANFORD       CLOUDY    49  26  40 CALM      29.84R
WINIFRED         N/A     53  28  39 SW6       29.83S
$$

MTZ017>020-022>027-061-062-272100-
NORTHEAST MONTANA

CITY           SKY/WX    TMP DP  RH WIND       PRES   REMARKS
GLASGOW        CLOUDY    52  30  43 NW6       29.86S
JORDAN           N/A     57  33  40 CALM      29.82F
SIDNEY         SUNNY     62  35  36 E8        29.85F
WOLF POINT     CLOUDY    58  31  35 E7        29.87R
MALTA          MOSUNNY   52  37  58 NE15      29.86S
PLENTYWOOD       N/A     52  34  50 E12       29.91F
POPLAR           N/A     57  28  33 E15       29.86S
SCOBEY           N/A     55  25  31 E12       29.88S
$$

MTZ028>42-056>058-272100-
SOUTHCENTRAL AND SOUTHEAST MONTANA

CITY           SKY/WX    TMP DP  RH WIND       PRES   REMARKS
BAKER          MOSUNNY   60  27  28 S8G21     29.86F
BILLINGS       PTSUNNY   57  28  33 CALM      29.82F
LIVINGSTON     CLOUDY    54  29  38 MISG      29.82F
MILES CITY     SUNNY     61  34  36 S8        29.81F
BIG TIMBER     CLOUDY    54  28  37 SW12      29.85S
EKALAKA          N/A     58  28  32 SE6       29.84F
FORSYTH          N/A     59  34  38 N5        29.80F
HARLOWTON      PTSUNNY   53  25  34 W16       29.82S
LAUREL           N/A     58  28  32 NE2       29.83S
$$

REGIONAL REPORTS...DAKOTAS

CITY           SKY/WX    TMP DP  RH WIND       PRES   REMARKS
WILLISTON      PTSUNNY   57  29  34 E10       29.90F
MINOT          CLOUDY    45  39  79 N9        29.93S
DICKINSON      MOSUNNY   60  23  24 S12G18    29.85F
BEACH            N/A    N/A N/A N/A MISG        N/A
TIOGA          CLOUDY    48  39  71 E8        29.94S
WATFORD CITY     N/A     57  34  41 E12       29.88F
BISMARCK       MOSUNNY   64  33  31 VRB5      29.91F
GRAND FORKS    CLOUDY    42  39  89 CALM      30.01R
FARGO          SUNNY     56  40  55 VRB3      29.96F
BUFFALO SD       N/A     60  28  29 SE14G21   29.79F
RAPID CITY     MOSUNNY   54  42  64 E9        29.85F
$$

REGIONAL REPORTS...WYOMING/IDAHO/WASHINGTON

CITY           SKY/WX    TMP DP  RH WIND       PRES   REMARKS
GILLETTE       MOSUNNY   58  28  32 E7        29.83S
SHERIDAN       PTSUNNY   61  30  31 N9        29.82S
BUFFALO WY     CLOUDY    55  31  39 NE6       29.84S
CODY           CLOUDY    54  26  34 N5        29.82F
YELLOWSTONE LA   N/A     36  27  69 VRB3      29.89F
IDAHO FALLS    CLOUDY    43  38  82 SW13      29.90S
SALMON         CLOUDY    45  32  61 N5        29.92R
BOISE          PTSUNNY   52  34  50 NW15      30.02S
SPOKANE        PTSUNNY   48  36  63 SW12      30.01R
$$

REGIONAL REPORTS...ALBERTA

CITY           SKY/WX    TMP DP  RH WIND       PRES   REMARKS
EDMONTON       CLOUDY    37  32  81 E8        29.86R WCI  31
CALGARY        MOSUNNY   52  18  25 VRB9      29.79S
LETHBRIDGE     PTSUNNY   54  25  32 W15G23    29.80S
MEDICINE HAT   PTSUNNY   55  27  33 CALM      29.82S
WATERTON GATE    N/A     48  23  37 SW15G21     N/A
CARDSTON         N/A     52  25  35 W10         N/A
MILK RIVER       N/A     54  27  35 NW8         N/A
$$

REGIONAL REPORTS...SASKATCHEWAN

CITY           SKY/WX    TMP DP  RH WIND       PRES   REMARKS
SWIFT CURRENT  SUNNY     50  27  40 E10       29.88S
REGINA         CLOUDY    43  36  75 E8        29.97S
CYPRESS HILLS    N/A     48  25  40 S12         N/A
VAL MARIE        N/A     46  39  76 SW10        N/A
ROCKGLEN         N/A     50  19  29 E9          N/A
ASSINIBOIA       N/A     36  34  93 SE8         N/A  WCI  29
$$




USA.gov is the U.S. government's official web portal to all federal, state and local government web resources and services.